Ankeny, IA

6:20 AM CST on November 20, 2019 (GMT -0600)
Ankeny Regional

Weather History for KIKV - August, 2019

Change the Weather History Date:

Monday, August 26, 2019

  Actual Average (WUND) Record (WUND)
Temperature  
Mean Temperature 68 °F -  
Max Temperature 73 °F - - (-1)
Min Temperature 62 °F - - (-1)
Cooling Degree Days 2    
Growing Degree Days 18 (Base 50)    
Moisture  
Dew Point 63 °F    
Average Humidity 88    
Maximum Humidity 100    
Minimum Humidity 73    
Precipitation  
Precipitation 0.00 in - - ()
Sea Level Pressure  
Sea Level Pressure 29.80 in    
Wind  
Wind Speed 5 mph ()    
Max Wind Speed 13 mph    
Max Gust Speed 16 mph    
Visibility 9.3 miles    
Events      
Averages and records for this station are not official NWS values.
T = Trace of Precipitation, MM = Missing Value Source: Averaged Metar Reports

Daily Weather History Graph

Daily Weather History Graph

Search for Another Location

Airport or City:

Astronomy

Aug. 26, 2019 Rise Set
Actual Time 6:33 AM CDT 7:57 PM CDT
Civil Twilight 6:04 AM CDT 8:26 PM CDT
Nautical Twilight 5:29 AM CDT 9:01 PM CDT
Astronomical Twilight 4:53 AM CDT 9:38 PM CDT
Moon 1:56 AM CDT (8/26) 5:24 PM CDT (8/26)
Length of Visible Light 14h 21m
Length of Day
13h 23m
Waning Crescent, 19% of the Moon is Illuminated
Aug 26
Waning Crescent
Aug 30
New
Sep 5
First Quarter
Sep 13
Full
Sep 21
Last Quarter

Hourly Weather History & Observations

Time (CDT) Temp. Dew Point Humidity Pressure Visibility Wind Dir Wind Speed Gust Speed Precip Events Conditions
12:15 AM 64.4 °F 60.8 °F 88% 29.86 in 10.0 mi East 5.8 mph - N/A   Overcast
12:35 AM 64.4 °F 60.8 °F 88% 29.86 in 10.0 mi ESE 5.8 mph - N/A   Overcast
12:55 AM 64.4 °F 60.8 °F 88% 29.86 in 10.0 mi ESE 5.8 mph - N/A   Overcast
1:15 AM 64.4 °F 60.8 °F 88% 29.86 in 10.0 mi East 3.5 mph - N/A   Overcast
1:55 AM 64.4 °F 60.8 °F 88% 29.84 in 10.0 mi ESE 8.1 mph - N/A   Overcast
2:15 AM 64.4 °F 60.8 °F 88% 29.82 in 10.0 mi East 6.9 mph - N/A   Overcast
2:35 AM 64.4 °F 60.8 °F 88% 29.82 in 10.0 mi Variable 3.5 mph - N/A   Overcast
2:55 AM 64.4 °F 60.8 °F 88% 29.81 in 10.0 mi East 4.6 mph - N/A   Overcast
3:15 AM 64.4 °F 60.8 °F 88% 29.80 in 10.0 mi East 3.5 mph - N/A   Overcast
3:35 AM 64.4 °F 60.8 °F 88% 29.80 in 10.0 mi East 5.8 mph - N/A   Overcast
4:15 AM 62.6 °F 60.8 °F 94% 29.80 in 9.0 mi East 6.9 mph - N/A   Overcast
4:35 AM 62.6 °F 60.8 °F 94% 29.80 in 9.0 mi East 4.6 mph - N/A   Overcast
4:55 AM 62.6 °F 60.8 °F 94% 29.82 in 10.0 mi Calm Calm - N/A   Overcast
5:15 AM 62.6 °F 60.8 °F 94% 29.84 in 9.0 mi NNW 6.9 mph - N/A   Overcast
5:35 AM 62.6 °F 62.6 °F 100% 29.84 in 1.0 mi NNW 5.8 mph - N/A   Overcast
5:55 AM 62.6 °F 62.6 °F 100% 29.82 in 1.0 mi NNE 3.5 mph - N/A   Overcast
6:15 AM 62.6 °F 60.8 °F 94% 29.82 in 4.0 mi North 4.6 mph - N/A   Overcast
6:35 AM 62.6 °F 60.8 °F 94% 29.82 in 7.0 mi North 4.6 mph - N/A   Overcast
6:55 AM 62.6 °F 62.6 °F 100% 29.82 in 8.0 mi North 4.6 mph - N/A   Overcast
7:15 AM 62.6 °F 62.6 °F 100% 29.82 in 3.0 mi North 3.5 mph - N/A   Overcast
7:35 AM 62.6 °F 62.6 °F 100% 29.81 in 4.0 mi NNE 4.6 mph - N/A   Overcast
7:55 AM 62.6 °F 62.6 °F 100% 29.79 in 5.0 mi NE 5.8 mph - N/A   Overcast
8:15 AM 64.4 °F 62.6 °F 94% 29.78 in 8.0 mi ENE 5.8 mph - N/A   Overcast
8:35 AM 64.4 °F 62.6 °F 94% 29.79 in 10.0 mi East 5.8 mph - N/A   Overcast
8:55 AM 64.4 °F 62.6 °F 94% 29.79 in 10.0 mi East 6.9 mph - N/A   Overcast
9:15 AM 64.4 °F 62.6 °F 94% 29.77 in 10.0 mi East 6.9 mph - N/A   Overcast
9:35 AM 66.2 °F 64.4 °F 94% 29.77 in 10.0 mi East 4.6 mph 11.5 mph N/A   Mostly Cloudy
9:55 AM 66.2 °F 64.4 °F 94% 29.79 in 10.0 mi Calm Calm - N/A   Mostly Cloudy
10:15 AM 68.0 °F 64.4 °F 88% 29.80 in 10.0 mi SW 3.5 mph - N/A   Overcast
10:35 AM 68.0 °F 64.4 °F 88% 29.80 in 10.0 mi West 5.8 mph - N/A   Overcast
10:55 AM 68.0 °F 64.4 °F 88% 29.80 in 10.0 mi SW 4.6 mph - N/A   Overcast
11:15 AM 68.0 °F 64.4 °F 88% 29.78 in 10.0 mi Calm Calm - N/A   Overcast
11:35 AM 68.0 °F 64.4 °F 88% 29.76 in 10.0 mi Calm Calm - N/A   Overcast
11:55 AM 69.8 °F 64.4 °F 83% 29.74 in 10.0 mi ESE 6.9 mph - N/A   Overcast
12:15 PM 69.8 °F 64.4 °F 83% 29.76 in 10.0 mi Variable 5.8 mph 12.7 mph N/A   Overcast
12:35 PM 69.8 °F 64.4 °F 83% 29.75 in 10.0 mi Calm Calm - N/A   Overcast
12:55 PM 69.8 °F 64.4 °F 83% 29.75 in 10.0 mi Calm Calm - N/A   Overcast
1:15 PM 69.8 °F 64.4 °F 83% 29.75 in 10.0 mi SSW 3.5 mph - N/A   Overcast
1:35 PM 71.6 °F 64.4 °F 78% 29.76 in 10.0 mi Calm Calm - N/A   Overcast
1:55 PM 71.6 °F 64.4 °F 78% 29.76 in 10.0 mi WNW 4.6 mph - N/A   Overcast
2:15 PM 71.6 °F 64.4 °F 78% 29.77 in 10.0 mi WNW 3.5 mph - N/A   Overcast
2:35 PM 71.6 °F 64.4 °F 78% 29.76 in 10.0 mi WNW 8.1 mph - N/A   Overcast
2:55 PM 69.8 °F 64.4 °F 83% 29.76 in 10.0 mi WNW 10.4 mph - N/A   Overcast
3:15 PM 69.8 °F 66.2 °F 88% 29.76 in 10.0 mi WNW 10.4 mph - N/A   Overcast
3:35 PM 71.6 °F 66.2 °F 83% 29.75 in 10.0 mi NW 8.1 mph - N/A   Overcast
3:55 PM 71.6 °F 66.2 °F 83% 29.75 in 10.0 mi WNW 10.4 mph - N/A   Overcast
4:15 PM 71.6 °F 66.2 °F 83% 29.76 in 10.0 mi WNW 6.9 mph 16.1 mph N/A   Overcast
4:35 PM 71.6 °F 64.4 °F 78% 29.76 in 10.0 mi WNW 9.2 mph - N/A   Overcast
4:55 PM 71.6 °F 66.2 °F 83% 29.76 in 10.0 mi NW 8.1 mph - N/A   Overcast
5:15 PM 73.4 °F 66.2 °F 78% 29.76 in 10.0 mi WNW 11.5 mph - N/A   Overcast
5:35 PM 73.4 °F 66.2 °F 78% 29.77 in 10.0 mi WNW 9.2 mph - N/A   Overcast
5:55 PM 73.4 °F 66.2 °F 78% 29.78 in 10.0 mi NW 9.2 mph 16.1 mph N/A   Overcast
6:15 PM 71.6 °F 64.4 °F 78% 29.78 in 10.0 mi NW 12.7 mph - N/A   Mostly Cloudy
6:35 PM 73.4 °F 64.4 °F 73% 29.78 in 10.0 mi NW 9.2 mph - N/A   Mostly Cloudy
6:55 PM 73.4 °F 64.4 °F 73% 29.78 in 10.0 mi NNW 11.5 mph - N/A   Partly Cloudy
7:15 PM 73.4 °F 64.4 °F 73% 29.78 in 10.0 mi NW 8.1 mph - N/A   Clear
7:35 PM 71.6 °F 64.4 °F 78% 29.79 in 10.0 mi WNW 4.6 mph - N/A   Clear
7:55 PM 69.8 °F 64.4 °F 83% 29.79 in 10.0 mi WNW 5.8 mph - N/A   Clear
8:15 PM 68.0 °F 64.4 °F 88% 29.79 in 10.0 mi WNW 4.6 mph - N/A   Clear
8:35 PM 68.0 °F 64.4 °F 88% 29.80 in 10.0 mi West 4.6 mph - N/A   Clear
8:55 PM 68.0 °F 64.4 °F 88% 29.81 in 10.0 mi WSW 3.5 mph - N/A   Clear
9:15 PM 66.2 °F 64.4 °F 94% 29.82 in 10.0 mi Calm Calm - N/A   Clear
9:35 PM 66.2 °F 64.4 °F 94% 29.82 in 10.0 mi WSW 3.5 mph - N/A   Clear
9:55 PM 62.6 °F 60.8 °F 94% 29.82 in 10.0 mi Calm Calm - N/A   Clear
10:15 PM 62.6 °F 62.6 °F 100% 29.82 in 10.0 mi Calm Calm - N/A   Clear
10:35 PM 64.4 °F 62.6 °F 94% 29.82 in 10.0 mi Calm Calm - N/A   Clear
10:55 PM 62.6 °F 62.6 °F 100% 29.82 in 10.0 mi SW 3.5 mph - N/A   Clear
11:15 PM 64.4 °F 62.6 °F 94% 29.82 in 10.0 mi West 5.8 mph - N/A   Clear
11:35 PM 66.2 °F 64.4 °F 94% 29.82 in 10.0 mi West 5.8 mph - N/A   Clear
11:55 PM 64.4 °F 62.6 °F 94% 29.82 in 10.0 mi West 4.6 mph - N/A   Clear